Location: Mercogliano
(40.9167°N, 14.7333°E)
Time: 04:30:57
(UTC+00:00)

Cosmos 1891 Rocket - Pass Details

Date: 18 September 2020
Orbit: 934 x 1018 km, 82.9° (Epoch: 25 October)

Event Time Altitude Azimuth Distance (km) Brightness Sun altitude
Rises 18:22:53 0° 183° (S) 3,654 7.4 -15.4°
Reaches altitude 10° 18:25:24 10° 182° (S) 2,698 6.7 -15.9°
Maximum altitude 18:31:34 83° 95° (E) 965 4.4 -17.0°
Drops below altitude 10° 18:37:40 10° 9° (N) 2,667 6.9 -18.1°
Sets 18:40:08 0° 9° (N) 3,609 7.6 -18.5°
